{"data":{"norad_id":57193,"intl_designator":"2023-091AD","name":"SITRO-AIS 8 (ANOKHIN)","alt_names":[],"object_type":"PAYLOAD","status":"ACTIVE","operator":null,"country":"CIS","launch_date":"2023-06-27","launch_site_code":"VOSTO","launch_vehicle":null,"mission":null,"orbit_class":"UNKNOWN","rcs_meters":null,"size_class":null,"mass_kg":null,"dimensions":null,"purposes":["tech_demo"],"wikipedia_slug":null,"has_3d_model":false,"image_url":null,"decayed_at":null,"tle_current":{"epoch":"2026-05-25T03:47:43.358208Z","epoch_age_seconds":57817,"freshness":"FRESH","line1":"1 57193U 23091AD  26145.15814072  .00013129  00000+0  43436-3 0  9994","line2":"2 57193  97.5068 210.3444 0011179 171.7640 188.3786 15.31409278160924","mean_motion":15.31409278,"eccentricity":0.0011179,"inclination_deg":97.5068,"raan_deg":210.3444,"arg_perigee_deg":171.764,"mean_anomaly_deg":188.3786,"bstar":0.00043436,"rev_number":16092,"period_min":94.031035379427,"perigee_km":463.94943092816,"apogee_km":479.2640880256,"semimajor_km":6849.7437594769,"source":"CELESTRAK","updated_at":"2026-05-25T13:38:25.532804Z"}}}